Starlink 32940

operational
NORAD ID: 63568 Int'l Des: 2025-075 Owner: SPXS Country: US Constellation: starlink
LEOCIRCULAR

Über Starlink 32940

Beschreibung wird geladen...

Live-Position

3D-Globus wird geladen...

Nächste Überflüge

Höhenverlauf

Altitude vs Time

uPlot chart will show altitude changes over time

Zweizeiliger Elementsatz

1 63568U 25075W 25303.93373680 .00053593 00000-0 19408-2 0 9998
2 63568 43.0018 283.3379 0000924 252.4157 107.6594 15.27616318 32087
Epoch: 30. Okt. 2025 • Age: 11 hours

Aktueller Status

Höhe 495.2 km
Geschwindigkeit 7.62 km/s
Subsatellitenpunkt -42.37°S, 3.17°E
Startdatum 13. Apr. 2025
Alter 0.5 years
Typ internet

Technische Details

Klassifizierung Payload
Masse 730.00 kg
Trockenmasse 700.00 kg
Gesamtmasse 730.00 kg
Länge 0.30 m
Durchmesser 4.10 m
Spannweite 29.00 m
Form Box + pan
Hersteller SPXS
Bus-Typ Starlink V2M
Phasenstatus In Orbit
Besitzer/Staat SPXS/US

Große Konstellationen

Loading constellations...